Preview of NWS' New Version of Forecast
This preview is not operational and should not be used for support decisions.
Latest weather observations around

Cloquet Carlton County Airport (KCOQ)

Using English Units (Switch to International System of Units)
Date/ Time (CDT) Wind (mph) Vis. (mi) Weather Sky Cond. Temp (°F) Rel. Humidity Wind Chill (°F) Heat Index (°F) Pressure Precip. (in)
Air Dwpt 6 hour Altimeter (inHg) Sea level (inHg) 1 hr 3 hr 6 hr
Max Min
Apr 19 13:35 WSW 6 10 Clear CLR 52 9     17%     30.41        
Apr 19 13:15 WNW 7 10 Clear CLR 52 9     17%     30.41        
Apr 19 12:55 W 7 10 Clear CLR 50 9     18% 47   30.41        
Apr 19 12:35 NW 5 10 Clear CLR 50 9     18% 48   30.41        
Apr 19 12:15 WNW 9 10 Clear CLR 48 10     21% 44   30.41        
Apr 19 11:55 WNW 3 10 Clear CLR 48 9     20% 47   30.41        
Apr 19 11:35 WNW 5 10 Clear CLR 48 7     18% 46   30.41        
Apr 19 11:16 NNW 8 10 Clear CLR 48 9     20% 45   30.41        
Apr 19 10:55 WNW 6 10 Clear CLR 46 9     21% 43   30.41        
Apr 19 10:35 NW 7 10 Clear CLR 46 10     23% 43   30.41        
Apr 19 10:15 WNW 8 10 Clear CLR 45 10     24% 40   30.4        
Apr 19 09:55 W 7 10 Clear CLR 45 12     26% 41   30.4        
Apr 19 09:15 Calm 10 Clear CLR 39 12     33%     30.39        
Apr 19 08:55 Calm 10 Clear CLR 37 16     41%     30.39        
Apr 19 08:35 N 3 10 Clear CLR 36 14     41% 33   30.39        
Apr 19 08:15 NNW 3 10 Clear CLR 34 12     40% 31   30.38        
Apr 19 07:55 NNW 5 10 Clear CLR 32 14     47% 27   30.38        
Apr 19 07:35 NW 5 10 Clear CLR 30 12     47% 25   30.38        
Notice The following observation data may not be complete
Apr 19 07:15   10 Clear CLR          %              
Apr 19 06:55 WNW 6 10 Clear CLR 27 10     50% 20   30.36        
Apr 19 06:35 WNW 7 10 Clear CLR 27 10     50% 19   30.36        
Apr 19 06:15 WNW 7 10 Clear CLR 27 10     50% 19   30.35        
Apr 19 05:55 WNW 8 10 Clear CLR 27 10     50% 18   30.34        
Apr 19 05:36 WNW 7 10 Clear CLR 21 10     63% 13   30.33        
Apr 19 05:15 NW 6 10 Clear CLR 23 10     58% 16   30.32        
Apr 19 04:55 NW 6 10 Clear CLR 25 10     54% 18   30.31        
Apr 19 04:35 NW 6 10 Clear CLR 25 10     54% 18   30.3        
Apr 19 04:15 NNW 7 10 Clear CLR 27 9     46% 19   30.29        
Apr 19 03:55 NW 7 10 Clear CLR 27 9     46% 19   30.29        
Apr 19 03:35 NW 8 10 Clear CLR 27 9     46% 18   30.28        
Apr 19 03:15 NNW 8 10 Clear CLR 27 9     46% 18   30.28        
Apr 19 02:55 NNW 7 10 Clear CLR 27 10     50% 19   30.27        
Apr 19 02:35 NW 8 10 Clear CLR 27 10     50% 18   30.26        
Apr 19 02:15 NW 8 10 Clear CLR 27 10     50% 18   30.26        
Apr 19 01:55 NNW 8 10 Clear CLR 27 10     50% 18   30.26        
Apr 19 01:35 NNW 7 10 Clear CLR 27 10     50% 19   30.25        
Apr 19 01:15 NNW 8 10 Clear CLR 27 10     50% 18   30.25        
Apr 19 00:55 N 3 10 Clear CLR 27 12     54% 23   30.24        
Apr 19 00:35 N 5 10 Clear CLR 25 12     58% 19   30.23        
Apr 19 00:15 NNW 6 10 Clear CLR 27 12     54% 20   30.23        
Apr 18 23:55 NNW 3 10 Clear CLR 25 16     68% 21   30.22        
Apr 18 23:35 Calm 10 Clear CLR 25 16     68%     30.22        
Apr 18 23:15 NW 3 10 Clear CLR 25 16     68% 21   30.22        
Apr 18 22:55 NNW 5 10 Clear CLR 27 14     59% 21   30.21        
Apr 18 22:35 Calm 10 Clear CLR 27 12     54%     30.21        
Apr 18 22:15 NNW 3 10 Clear CLR 28 12     50% 25   30.21        
Apr 18 21:55 NNW 7 10 Clear CLR 28 16     59% 21   30.2        
Apr 18 21:35 NNW 3 10 Clear CLR 28 12     50% 25   30.19        
Apr 18 21:15 Calm 10 Clear CLR 30 7     37%     30.18        
Apr 18 20:55 Calm 10 Clear CLR 34 9     34%     30.18        
Apr 18 20:35 ENE 3 10 Clear CLR 36 3     25% 33   30.17        
Apr 18 20:15 ENE 3 10 Clear CLR 36 3     25% 33   30.17        
Apr 18 19:55 E 3 10 Clear CLR 37 7     27% 35   30.16        
Apr 18 19:35 E 5 10 Clear CLR 37 7     27% 34   30.15        
Apr 18 19:15 E 8 10 Clear CLR 37 9     30% 31   30.14        
Apr 18 18:55 E 8 10 Clear CLR 39 7     26% 34   30.14        
Apr 18 18:35 ENE 9 10 Clear CLR 39        % 33   30.13        
Apr 18 18:15 E 8 10 Clear CLR 39 10     30% 34   30.12        
Apr 18 17:55 ENE 11 10 Clear CLR 39 10     30% 32   30.11        
Apr 18 17:35 E 13 10 Clear CLR 39 12     33% 32   30.1        
Apr 18 17:15 E 15 10 Clear CLR 39 10     30% 31   30.09        
Apr 18 16:55 E 10 10 Clear CLR 41 12     30% 35   30.08        
Apr 18 16:35 ENE 11 10 Clear CLR 43 14     31% 37   30.07        
Apr 18 16:15 E 16 10 Clear CLR 41 18     38% 33   30.07        
Apr 18 15:55 E 17 10 Clear CLR 41 16     36% 32   30.06        
Apr 18 15:35 NE 11 10 Clear CLR 41 18     38% 34   30.06        
Apr 18 15:15 E 15 10 Clear CLR 39 19     45% 31   30.05        
Apr 18 14:55 E 11 10 Clear CLR 39 21     48% 32   30.05        
Apr 18 14:35 NE 18 10 Clear CLR 41 21     45% 32   30.04        
Apr 18 14:15 NE 10 10 Clear CLR 39 23     52% 33   30.04        
Apr 18 13:55 ENE 15 10 Clear CLR 37 23     56% 29   30.03        
Apr 18 13:35 E 14 10 Clear CLR 37 23     56% 29   30.03        
Apr 18 13:15 ENE 13 10 Clear CLR 37 23     56% 29   30.03        
Apr 18 12:55 ENE 14 10 Clear CLR 37 23     56% 29   30.03        
Apr 18 12:35 E 13 10 Clear CLR 36 23     60% 27   30.03        
Apr 18 12:15 E 11 10 Clear CLR 36 23     60% 28   30.03        
Apr 18 11:55 E 9 10 Partly Cloudy SCT032 SCT038 36 23     60% 29   30.03        
Apr 18 11:35 E 10 10 Mostly Cloudy BKN030 BKN035 36 23     60% 28   30.02        
Apr 18 11:15 NE 14 10 Cloudy OVC030 36 21     55% 27   30.01        
Apr 18 10:55 ENE 15 10 Cloudy OVC030 34 21     60% 24   30.01        
Apr 18 10:35 ENE 15 10 Cloudy OVC030 34 21     60% 24   30.01        
Apr 18 10:15 ENE 17 10 Cloudy OVC030 34 21     60% 23   30.01        
Apr 18 09:55 ENE 15 10 Cloudy OVC030 34 21     60% 24   30        
Apr 18 09:35 ENE 17 10 Cloudy OVC030 34 21     60% 23   30        
Apr 18 09:15 ENE 17 10 Cloudy BKN026 OVC033 34 23     64% 23   29.99        
Apr 18 08:55 NE 16 10 Cloudy BKN025 OVC033 34 25     69% 24   30        
Apr 18 08:35 NE 11 10 Cloudy BKN025 OVC033 34 25     69% 25   30        
Apr 18 08:15 NE 9 10 Cloudy BKN027 OVC035 32 21     64% 24   30.01        
Apr 18 07:55 N 5 10 Cloudy BKN028 OVC035 30 19     64% 25   30.01        
Apr 18 07:35 N 5 10 Cloudy OVC028 30 19     64% 25   30        
Apr 18 07:15 N 3 10 Cloudy OVC028 28 19     69% 25   30        
Apr 18 06:55 NNW 6 10 Cloudy OVC028 28 19     69% 22   29.99        
Apr 18 06:35 NW 5 10 Cloudy OVC032 28 19     69% 23   29.99        
Apr 18 06:15 WNW 3 10 Cloudy OVC037 28 19     69% 25   29.98        
Apr 18 05:55 Calm 10 Cloudy OVC039 30 19     64%     29.96        
Apr 18 05:35 Calm 10 Cloudy OVC041 30 19     64%     29.95        
Apr 18 05:15 NE 9 10 Mostly Cloudy BKN041 30 19     64% 22   29.91        
Apr 18 04:55 NE 13 10 Clear CLR 30 19     64% 20   29.92        
Apr 18 04:35 NE 9 10 Clear CLR 28 19     69% 20   29.93        
Apr 18 04:15 NNE 8 10 Clear CLR 28 19     69% 20   29.94        
Apr 18 03:55 N 3 10 Clear CLR 25 19     80% 21   29.95        
Apr 18 03:35 NW 5 10 Clear CLR 27 21     80% 21   29.96        
Apr 18 03:15 NW 6 10 Clear CLR 27 21     80% 20   29.96        
Apr 18 02:55 WNW 5 10 Clear CLR 25 19     80% 19   29.96        
Apr 18 02:35 N 5 10 Clear CLR 27 21     80% 21   29.96        
Apr 18 02:15 N 5 10 Clear CLR 27 21     80% 21   29.96        
Apr 18 01:55 N 6 10 Clear CLR 27 21     80% 20   29.97        
Apr 18 01:35 NNW 6 10 Clear CLR 27 21     80% 20   29.98        
Apr 18 01:15 NNW 5 10 Clear CLR 27 21     80% 21   29.98        
Apr 18 00:55 NW 3 10 Clear CLR 27 21     80% 23   30        
Apr 18 00:35 Calm 10 Clear CLR 27 21     80%     30        
Apr 18 00:15 NNW 5 10 Clear CLR 28 21     74% 23   30        
Apr 17 23:55 NNW 3 10 Partly Cloudy SCT050 28 21     74% 25   30.01        
Apr 17 23:35 Calm 10 Partly Cloudy SCT050 28 21     74%     30.01        
Apr 17 23:15 Calm 10 Partly Cloudy SCT050 28 21     74%     30.02        
Apr 17 22:55 Calm 10 Partly Cloudy SCT050 30 21     69%     30.04        
Apr 17 22:35 Calm 10 Mostly Cloudy BKN050 34 23     64%     30.04        
Apr 17 22:15 Calm 10 Cloudy OVC048 34 23     64%     30.03        
Apr 17 21:55 Calm 10 Cloudy OVC046 34 23     64%     30.03        
Apr 17 21:35 ENE 5 10 Cloudy OVC048 34 23     64% 29   30.02        
Apr 17 21:15 ENE 7 10 Cloudy OVC048 34 23     64% 28   30.01        
Apr 17 20:55 ENE 8 10 Mostly Cloudy BKN048 34 21     60% 27   30.01        
Apr 17 20:35 ENE 10 10 Partly Cloudy SCT048 34 21     60% 26   30        
Apr 17 20:15 ENE 9 10 Mostly Cloudy BKN048 34 21     60% 26   29.98        
Apr 17 19:55 E 6 10 Partly Cloudy SCT050 34 21     60% 29   29.98        
Apr 17 19:35 E 6 10 Clear CLR 36 21     55% 31   29.97        
Apr 17 19:15 E 11 10 Clear CLR 36 21     55% 28   29.97        
Apr 17 18:55 E 8 10 Clear CLR 37 23     56% 31   29.96        
Apr 17 18:35 E 9 10 Clear CLR 37 21     52% 31   29.95        
Apr 17 18:15 E 10 10 Clear CLR 37 21     52% 30   29.94        
Apr 17 17:55 E 13 10 Clear CLR 37 21     52% 29   29.93        
Apr 17 17:35 E 8 10 Clear CLR 37 21     52% 31   29.93        
Apr 17 17:15 E 10 10 Clear CLR 39 21     48% 33   29.93        
Apr 17 16:55 E 9 10 Clear CLR 39 21     48% 33   29.93        
Apr 17 16:35 E 7 10 Clear CLR 41 21     45% 36   29.92        
Apr 17 16:15 E 10 10 Clear CLR 43 21     42% 37   29.92        
Apr 17 15:55 E 9 10 Partly Cloudy SCT050 43 21     42% 37   29.91        
Apr 17 15:35 NE 18 10 Mostly Cloudy BKN050 43 21     42% 35   29.91        
Apr 17 15:15 NE 16 10 Partly Cloudy SCT050 43 21     42% 35   29.91        
Apr 17 14:55 NE 13 10 Partly Cloudy SCT044 SCT050 43 21     42% 36   29.91        
Apr 17 14:35 NNE 11 10 Partly Cloudy SCT044 43 21     42% 37   29.92        
Apr 17 14:15 N 11 10 Clear CLR 41 21     45% 34   29.92        
Apr 17 13:55 NE 15 10 Clear CLR 39 21     48% 31   29.92        
Apr 17 13:35 N 13 10 Clear CLR 39 19     45% 32   29.91        
Apr 17 13:15 N 14 10 Clear CLR 39 19     45% 31   29.91        
Apr 17 12:55 N 13 10 Clear CLR 37 19     48% 29   29.92        
Apr 17 12:35 NNE 10 10 Clear CLR 37 18     44% 30   29.93        
Apr 17 12:15 NNE 6 10 Clear CLR 36 18     48% 31   29.93        
Apr 17 11:55 NNE 11 10 Clear CLR 36 18     48% 28   29.94        
Apr 17 11:35 NNE 9 10 Clear CLR 36 18     48% 29   29.95        
Apr 17 11:16 NNE 14 10 Clear CLR 34 18     51% 24   29.95        
Apr 17 11:15 NNE 13 10 Clear CLR 34 18     51% 25   29.95        
Apr 17 10:55 NNE 7 10 Clear CLR 34 18     51% 28   29.96        
Apr 17 10:35 N 11 10 Clear CLR 34 18     51% 25   29.97        
Apr 17 10:15 NNE 14 10 Clear CLR 34 18     51% 24   29.97        
Apr 17 09:56 N 11 10 Clear CLR 32 18     55% 23   29.97        
Apr 17 09:55 N 11 10 Clear CLR 32 18     55% 23   29.97        
Apr 17 09:35 N 14 10 Clear CLR 30 18     59% 20   29.97        
Apr 17 09:15 NNW 14 10 Clear CLR 30 18     59% 20   29.98        
Apr 17 08:56 N 15 10 Clear CLR 28 18     64% 17   29.97        
Apr 17 08:55 N 14 10 Clear CLR 28 18     64% 17   29.97        
Apr 17 08:35 N 14 10 Clear CLR 28 16     59% 17   29.96        
Apr 17 08:15 N 15 10 Clear CLR 27 16     63% 15   29.96        
Apr 17 07:56 NNW 15 10 Clear CLR 27 16     63% 15   29.95        
Apr 17 07:55 NNW 14 10 Clear CLR 27 16     63% 15   29.96        
Apr 17 07:35 NNW 17 10 Clear CLR 25 14     63% 11   29.95        
Apr 17 07:16 NNW 16 10 Clear CLR 25 12     58% 12   29.95        
Apr 17 06:55 NNW 15 10 Clear CLR 25 12     58% 12   29.95        
Apr 17 06:35 NNW 15 10 Clear CLR 23 12     63% 10   29.95        
Apr 17 06:16 NNW 13 10 Clear CLR 23 12     63% 11   29.96        
Apr 17 05:55 NNW 13 10 Clear CLR 25 12     58% 13   29.96        
Apr 17 05:35 NNW 11 10 Clear CLR 25 12     58% 14   29.96        
Apr 17 05:16 NNW 10 10 Clear CLR 25 12     58% 15   29.96        
Apr 17 05:15 NNW 13 10 Clear CLR 25 12     58% 13   29.96        
Apr 17 04:55 NNW 13 10 Clear CLR 25 12     58% 13   29.97        
Apr 17 04:35 NNW 11 10 Clear CLR 25 12     58% 14   29.97        
Apr 17 04:16 NW 11 10 Clear CLR 25 14     63% 14   29.97        
Apr 17 04:15 NW 11 10 Clear CLR 25 14     63% 14   29.97        
Apr 17 03:55 NW 8 10 Clear CLR 25 16     68% 16   29.97        
Apr 17 03:35 NW 10 10 Clear CLR 25 16     68% 15   29.98        
Apr 17 03:15 NW 8 10 Clear CLR 25 18     74% 16   29.97        
Apr 17 02:55 WNW 9 10 Clear CLR 25 18     74% 15   29.97        
Apr 17 02:35 WNW 8 10 Clear CLR 23 18     79% 14   29.97        
Apr 17 02:15 WNW 6 10 Clear CLR 23 18     79% 16   29.97        
Apr 17 01:55 WNW 7 10 Clear CLR 25 18     74% 17   29.97        
Apr 17 01:35 NW 6 10 Partly Cloudy SCT028 25 18     74% 18   29.97        
Apr 17 01:15 NNW 8 10 Mostly Cloudy BKN028 27 18     68% 18   29.98        
Apr 17 00:55 NW 8 10 Cloudy OVC028 27 18     68% 18   29.97        
Apr 17 00:35 NW 7 10 Cloudy OVC030 27 18     68% 19   29.97        
Apr 17 00:15 NW 8 10 Cloudy OVC030 27 18     68% 18   29.97        
Apr 16 23:55 NNW 10 10 Mostly Cloudy BKN030 27 18     68% 17   29.98        
Apr 16 23:35 NNW 9 10 Partly Cloudy SCT030 27 18     68% 18   29.97        
Apr 16 23:15 NNW 11 10 Clear CLR 27 18     68% 16   29.98        
Apr 16 22:55 N 9 10 Partly Cloudy SCT032 27 18     68% 18   29.97        
Apr 16 22:35 NNW 10 10 Partly Cloudy SCT032 27 18     68% 17   29.98        
Apr 16 22:15 NNW 10 10 Partly Cloudy SCT034 27 18     68% 17   29.99        
Apr 16 21:55 NW 9 10 Partly Cloudy SCT034 28 18     64% 20   29.99        
Apr 16 21:35 NW 13 10 Clear CLR 28 18     64% 18   29.99        
Apr 16 21:15 NNW 11 10 Clear CLR 28 18     64% 19   29.98        
Apr 16 20:55 NNW 14 10 Clear CLR 28 18     64% 17   29.98        
Apr 16 20:35 NNW 13 10 Partly Cloudy SCT034 SCT041 28 18     64% 18   29.98        
Apr 16 20:15 N 14 10 Mostly Cloudy BKN036 BKN041 28 18     64% 17   29.97        
Apr 16 19:55 N 14 10 Cloudy OVC038 30 19     64% 20   29.98        
Apr 16 19:35 NNW 16 10 Cloudy SCT029 OVC038 30 19     64% 19   29.97        
Apr 16 19:15 N 13 10 Cloudy BKN029 OVC036 30 19     64% 20   29.97        
Apr 16 18:55 N 13 10 Cloudy SCT029 OVC036 30 19     64% 20   29.97        
Apr 16 18:35 NNW 18 10 Cloudy SCT029 OVC042 30 19     64% 18   29.97        
Apr 16 18:15 N 10 10 Cloudy SCT030 OVC040 30 19     64% 21   29.97        
Apr 16 17:55 NNW 16 10 Cloudy BKN030 OVC036 30 19     64% 19   29.96        
Apr 16 17:35   10 Cloudy BKN030 OVC037 30 19     64%     29.96        
Apr 16 17:16 N 16 10 Cloudy BKN031 OVC039 30 19     64% 19   29.95        
Apr 16 17:15 N 15 10 Cloudy BKN031 OVC039 30 19     64% 19   29.95        
Apr 16 16:55 NNW 17 10 Cloudy BKN029 OVC035 30 19     64% 18   29.95        
Apr 16 16:35 NNW 16 10 Cloudy BKN029 OVC034 30 19     64% 19   29.95        
Apr 16 16:16 NW 9 10 Cloudy BKN027 OVC034 30 19     64% 22   29.95        
Apr 16 16:15 NW 9 10 Cloudy BKN027 OVC034 30 19     64% 22   29.95        
Apr 16 15:55 NNW 11 10 Cloudy BKN027 OVC055 28 18     64% 19   29.96        
Apr 16 15:35 NNW 13 10 Cloudy SCT027 OVC055 28 18     64% 18   29.97        
Apr 16 15:16 NNW 16 10 Cloudy BKN027 OVC055 28 18     64% 17   29.97        
Apr 16 15:15 NNW 11 10 Cloudy BKN027 OVC055 28 18     64% 19   29.97        
Apr 16 14:55 NNW 14 10 Cloudy OVC027 27 18     68% 15   29.97        
Apr 16 14:35 NNW 18 10 Cloudy OVC027 27 16     63% 13   29.98        
Apr 16 14:16 NNW 18 10 Cloudy BKN025 OVC030 27 16     63% 13   29.98        
Apr 16 14:15 NNW 17 10 Cloudy BKN025 OVC030 27 16     63% 14   29.98        
Jun 12 05:55 Calm 0.5 Fog VV005 55 52     88%     29.86        
Jun 12 01:55 Calm 7 Clear CLR 57 55     94%     29.8        
Jun 11 22:15 Calm 10 Clear CLR 57 55     94%     29.75        
Jun 11 21:35 Calm 7 Clear CLR 61 55     82%     29.74        
Notice The following observation data may not be complete
Jun 11 20:14   10 Clear CLR          %              
Jun 11 18:15 SE 6 10 Cloudy OVC023 64 57     77%     29.72        
Jun 11 14:15 SSW 3 10 Clear CLR 63 54     72%     29.75        
Jun 10 23:35 W 6 10 Clear CLR 66 52     60%     29.66        
Jun 10 21:55 W 7 10 Clear CLR 72 54     53%   71          
Jun 10 19:35 W 10 10 Clear CLR 81 54     39%   80 29.51        
Notice The following observation data may not be complete
Jun 10 19:15   10 Clear CLR          %              
Jun 10 17:55   10 Clear CLR 84 57     40%   83 29.45        
Jun 10 16:35 WSW 23 10 Partly Cloudy and Windy SCT050 SCT055 88 61     40%   88 29.4        
Jun 10 11:55 SSW 21 10 Clear and Windy CLR 84 61     45%   84 29.37        
Jun 09 22:15 E 8 10 Clear CLR 54 46     77%     29.68        
Jun 09 20:35 E 8 10 Clear CLR 57 48     72%     29.7        
Jun 09 13:55 ESE 8 10 Clear CLR 72 55     57%   71 29.82        
Notice The following observation data may not be complete
Jun 09 10:34   10 Clear CLR          %              
Jun 09 08:55 E 8 10 Clear CLR 63 55     77%     29.89        
Jun 08 23:15 E 5 10 Clear CLR 57 50     77%     29.88        
Jun 08 21:55 Calm 10 Mostly Cloudy BKN090 61 48     63%     29.88        
Jun 08 21:15 Calm 10 Partly Cloudy SCT080 63 48     59%     29.87        
Jun 08 14:35 NNW 11 10 Cloudy BKN050 BKN060 OVC080 75 54     47%   75 29.87        
Jun 08 11:14 NNW 10 10 Clear CLR 73 54     50%   73 29.89        
Jun 08 10:35 NNW 10 10 Partly Cloudy SCT037 72 54     53%   71 29.89        
Jun 07 21:35 SSW 3 10 Light Rain SCT120 66 50     56%     29.98        
Jun 07 13:55 S 7 10 Clear CLR 79 43     28%   78 30.04        
Jun 07 11:55 S 10 10 Clear CLR 75 43     31%   74 30.09        
Jun 07 11:35 SSE 9 7 Clear CLR 73 45     36%   72 30.09        
Jun 06 13:55 SE 3 10 Clear CLR 73 37     27%   72 30.13        
Jun 06 11:35 SSW 7 10 Clear CLR 70 30     23%     30.16        
Jun 06 05:55 Calm 10 Clear CLR 39 36     87%     30.15        
Jun 06 05:35 Calm 10 Clear CLR 41 36     81%     30.14        
Jun 06 01:35 Calm 10 Clear CLR 43 37     81%     30.12        
Jun 05 21:55 E 3 10 Clear CLR 55 36     47%     30.1        
Notice The following observation data may not be complete
Jun 05 20:15   10 Clear CLR          %